| time (UTC) | temp C | wind direction | speed KPH | gust KPH | rain 1hr cm | rain 24hr cm | rain mn cm | humidity % | barometer mb |
| 20260503022046 | 15 | 200 | 4.8 | 11.3 | 0.00 | 0.00 | 0.00 | 54 | 1013.5 |
| 20260503022003 | 15 | 197 | 4.8 | 11.3 | 0.00 | 0.00 | 0.00 | 54 | 1024.1 |
| 20260503021716 | 15 | 192 | 4.8 | 11.3 | 0.00 | 0.00 | 0.00 | 55 | 1024.1 |
| 20260503021559 | 15 | 194 | 4.8 | 11.3 | 0.00 | 0.00 | 0.00 | 54 | 1013.6 |
| 20260503021041 | 15 | 188 | 4.8 | 11.3 | 0.00 | 0.00 | 0.00 | 54 | 1013.5 |
| 20260503021003 | 15 | 193 | 4.8 | 11.3 | 0.00 | 0.00 | 0.00 | 55 | 1024.2 |
| 20260503020542 | 15 | 196 | 4.8 | 11.3 | 0.00 | 0.00 | 0.00 | 55 | 1013.7 |
| 20260503020503 | 15 | 199 | 4.8 | 11.3 | 0.00 | 0.00 | 0.00 | 56 | 1024.3 |
| 20260503020053 | 15 | 198 | 3.2 | 9.7 | 0.00 | 0.00 | 0.00 | 55 | 1013.7 |
| 20260503020003 | 15 | 200 | 4.8 | 9.7 | 0.00 | 0.00 | 0.00 | 56 | 1024.3 |
| 20260503015542 | 15 | 202 | 3.2 | 9.7 | 0.00 | 0.00 | 0.00 | 56 | 1013.8 |
| 20260503015503 | 15 | 196 | 3.2 | 9.7 | 0.00 | 0.00 | 0.00 | 56 | 1024.3 |
| 20260503015044 | 15 | 192 | 1.6 | 8.0 | 0.00 | 0.00 | 0.00 | 56 | 1013.7 |
| 20260503015003 | 15 | 196 | 3.2 | 8.0 | 0.00 | 0.00 | 0.00 | 56 | 1024.4 |
| 20260503014552 | 15 | 0 | 1.6 | 8.0 | 0.00 | 0.00 | 0.00 | 56 | 1013.8 |
| 20260503014503 | 15 | 203 | 1.6 | 8.0 | 0.00 | 0.00 | 0.00 | 56 | 1024.4 |
| 20260503014044 | 15 | 205 | 0.0 | 6.4 | 0.00 | 0.00 | 0.00 | 55 | 1013.7 |
| 20260503014003 | 15 | 205 | 1.6 | 9.7 | 0.00 | 0.00 | 0.00 | 56 | 1024.4 |
| 20260503013546 | 15 | 0 | 0.0 | 9.7 | 0.00 | 0.00 | 0.00 | 56 | 1013.8 |
| 20260503013503 | 15 | 203 | 1.6 | 9.7 | 0.00 | 0.00 | 0.00 | 56 | 1024.4 |
| 20260503013049 | 15 | 205 | 1.6 | 9.7 | 0.00 | 0.00 | 0.00 | 55 | 1013.8 |
| 20260503013003 | 15 | 203 | 1.6 | 9.7 | 0.00 | 0.00 | 0.00 | 56 | 1024.4 |
| 20260503012549 | 15 | 202 | 1.6 | 9.7 | 0.00 | 0.00 | 0.00 | 56 | 1013.8 |
| 20260503012503 | 15 | 205 | 3.2 | 9.7 | 0.00 | 0.00 | 0.00 | 56 | 1024.3 |
| 20260503012040 | 15 | 205 | 3.2 | 8.0 | 0.00 | 0.00 | 0.00 | 56 | 1013.7 |
| 20260503012003 | 15 | 204 | 3.2 | 8.0 | 0.00 | 0.00 | 0.00 | 56 | 1024.4 |
| 20260503011603 | 15 | 205 | 3.2 | 8.0 | 0.00 | 0.00 | 0.00 | 56 | 1013.8 |
| 20260503011503 | 15 | 203 | 3.2 | 9.7 | 0.00 | 0.00 | 0.00 | 56 | 1024.3 |
| 20260503011044 | 15 | 203 | 1.6 | 9.7 | 0.00 | 0.00 | 0.00 | 55 | 1013.8 |
| 20260503011003 | 15 | 202 | 3.2 | 9.7 | 0.00 | 0.00 | 0.00 | 56 | 1024.5 |
| 20260503010541 | 15 | 0 | 1.6 | 9.7 | 0.00 | 0.00 | 0.00 | 55 | 1013.8 |
| 20260503010503 | 15 | 203 | 1.6 | 9.7 | 0.00 | 0.00 | 0.00 | 55 | 1024.4 |
| 20260503010217 | 15 | 205 | 1.6 | 9.7 | 0.00 | 0.00 | 0.00 | 55 | 1024.5 |
| 20260503010047 | 15 | 199 | 1.6 | 9.7 | 0.00 | 0.00 | 0.00 | 55 | 1013.8 |
| 20260503005541 | 15 | 210 | 1.6 | 4.8 | 0.00 | 0.00 | 0.00 | 55 | 1013.9 |
| 20260503005503 | 15 | 210 | 1.6 | 6.4 | 0.00 | 0.00 | 0.00 | 55 | 1024.5 |
| 20260503005042 | 15 | 0 | 0.0 | 6.4 | 0.00 | 0.00 | 0.00 | 54 | 1013.9 |
| 20260503005003 | 16 | 210 | 1.6 | 6.4 | 0.00 | 0.00 | 0.00 | 55 | 1024.5 |
| 20260503004550 | 15 | 210 | 1.6 | 6.4 | 0.00 | 0.00 | 0.00 | 54 | 1013.8 |
| 20260503004503 | 15 | 211 | 1.6 | 6.4 | 0.00 | 0.00 | 0.00 | 54 | 1024.5 |
| 20260503004041 | 15 | 0 | 1.6 | 6.4 | 0.00 | 0.00 | 0.00 | 54 | 1014.0 |
| 20260503004003 | 16 | 213 | 1.6 | 8.0 | 0.00 | 0.00 | 0.00 | 54 | 1024.6 |
| 20260503003718 | 16 | 213 | 1.6 | 8.0 | 0.00 | 0.00 | 0.00 | 54 | 1024.7 |
| 20260503003544 | 15 | 213 | 0.0 | 6.4 | 0.00 | 0.00 | 0.00 | 54 | 1014.0 |
| 20260503003054 | 15 | 213 | 0.0 | 8.0 | 0.00 | 0.00 | 0.00 | 54 | 1014.1 |
| 20260503003003 | 16 | 213 | 1.6 | 4.8 | 0.00 | 0.00 | 0.00 | 54 | 1024.6 |
| 20260503002543 | 15 | 0 | 1.6 | 8.0 | 0.00 | 0.00 | 0.00 | 54 | 1014.1 |
| 20260503002503 | 16 | 210 | 3.2 | 8.0 | 0.00 | 0.00 | 0.00 | 54 | 1024.7 |
| 20260503002041 | 15 | 213 | 3.2 | 8.0 | 0.00 | 0.00 | 0.00 | 53 | 1014.2 |
| 20260503002003 | 16 | 207 | 3.2 | 8.0 | 0.00 | 0.00 | 0.00 | 54 | 1024.8 |
| 20260503001603 | 15 | 205 | 3.2 | 8.0 | 0.00 | 0.00 | 0.00 | 54 | 1014.3 |
| 20260503001503 | 15 | 205 | 3.2 | 8.0 | 0.00 | 0.00 | 0.00 | 54 | 1024.9 |
| 20260503001048 | 15 | 206 | 1.6 | 8.0 | 0.00 | 0.00 | 0.00 | 54 | 1014.3 |
| 20260503001003 | 15 | 204 | 3.2 | 8.0 | 0.00 | 0.00 | 0.00 | 54 | 1024.8 |
| 20260503000547 | 15 | 207 | 3.2 | 8.0 | 0.00 | 0.00 | 0.00 | 54 | 1014.3 |
| 20260503000503 | 15 | 200 | 3.2 | 8.0 | 0.00 | 0.00 | 0.00 | 54 | 1024.9 |
| 20260503000106 | 15 | 0 | 3.2 | 8.0 | 0.00 | 0.00 | 0.00 | 54 | 1014.4 |
| 20260503000003 | 15 | 198 | 3.2 | 8.0 | 0.00 | 0.00 | 0.00 | 55 | 1025.0 |
| 20260502235546 | 15 | 198 | 1.6 | 8.0 | 0.00 | 0.00 | 0.00 | 55 | 1014.4 |
| 20260502235503 | 15 | 198 | 3.2 | 8.0 | 0.00 | 0.00 | 0.00 | 55 | 1025.1 |
| 20260502235048 | 15 | 0 | 3.2 | 8.0 | 0.00 | 0.00 | 0.00 | 55 | 1014.5 |
| 20260502235003 | 15 | 198 | 3.2 | 8.0 | 0.00 | 0.00 | 0.00 | 55 | 1025.2 |
| 20260502234614 | 15 | 198 | 1.6 | 4.8 | 0.00 | 0.00 | 0.00 | 55 | 1014.5 |
| 20260502234503 | 15 | 198 | 1.6 | 4.8 | 0.00 | 0.00 | 0.00 | 55 | 1025.0 |
| 20260502234048 | 15 | 198 | 0.0 | 4.8 | 0.00 | 0.00 | 0.00 | 54 | 1014.4 |
| 20260502234003 | 15 | 198 | 1.6 | 4.8 | 0.00 | 0.00 | 0.00 | 55 | 1025.0 |
| 20260502233546 | 15 | 198 | 1.6 | 4.8 | 0.00 | 0.00 | 0.00 | 54 | 1014.4 |
| 20260502233503 | 15 | 198 | 1.6 | 6.4 | 0.00 | 0.00 | 0.00 | 55 | 1025.0 |
| 20260502233109 | 15 | 198 | 1.6 | 4.8 | 0.00 | 0.00 | 0.00 | 55 | 1014.4 |
| 20260502233003 | 15 | 198 | 1.6 | 6.4 | 0.00 | 0.00 | 0.00 | 56 | 1024.9 |
| 20260502232547 | 14 | 198 | 0.0 | 6.4 | 0.00 | 0.00 | 0.00 | 56 | 1014.3 |
| 20260502232503 | 15 | 198 | 1.6 | 6.4 | 0.00 | 0.00 | 0.00 | 56 | 1024.9 |
| 20260502232046 | 14 | 0 | 1.6 | 6.4 | 0.00 | 0.00 | 0.00 | 56 | 1014.4 |
| 20260502232003 | 14 | 198 | 3.2 | 6.4 | 0.00 | 0.00 | 0.00 | 56 | 1025.0 |
| 20260502231717 | 14 | 198 | 3.2 | 6.4 | 0.00 | 0.00 | 0.00 | 57 | 1025.0 |
| 20260502231612 | 14 | 198 | 1.6 | 4.8 | 0.00 | 0.00 | 0.00 | 56 | 1014.5 |
| 20260502231218 | 14 | 198 | 1.6 | 6.4 | 0.00 | 0.00 | 0.00 | 57 | 1025.0 |
| 20260502231049 | 14 | 198 | 1.6 | 6.4 | 0.00 | 0.00 | 0.00 | 57 | 1014.5 |
| 20260502230546 | 13 | 198 | 0.0 | 6.4 | 0.00 | 0.00 | 0.00 | 57 | 1014.5 |
| 20260502230051 | 13 | 198 | 1.6 | 6.4 | 0.00 | 0.00 | 0.00 | 58 | 1014.5 |
| 20260502230003 | 14 | 198 | 3.2 | 6.4 | 0.00 | 0.00 | 0.00 | 58 | 1025.2 |
| 20260502225551 | 13 | 198 | 3.2 | 6.4 | 0.00 | 0.00 | 0.00 | 58 | 1014.6 |
| 20260502225503 | 13 | 198 | 1.6 | 6.4 | 0.00 | 0.00 | 0.00 | 59 | 1025.2 |
| 20260502225048 | 13 | 198 | 1.6 | 3.2 | 0.00 | 0.00 | 0.00 | 60 | 1014.6 |
| 20260502225003 | 13 | 198 | 0.0 | 3.2 | 0.00 | 0.00 | 0.00 | 60 | 1025.2 |
| 20260502224550 | 13 | 0 | 0.0 | 1.6 | 0.00 | 0.00 | 0.00 | 60 | 1014.6 |
| 20260502224503 | 13 | 198 | 0.0 | 1.6 | 0.00 | 0.00 | 0.00 | 60 | 1025.3 |
| 20260502224047 | 13 | 0 | 0.0 | 1.6 | 0.00 | 0.00 | 0.00 | 60 | 1014.7 |
| 20260502224003 | 13 | 198 | 0.0 | 1.6 | 0.00 | 0.00 | 0.00 | 60 | 1025.2 |
| 20260502223547 | 13 | 0 | 0.0 | 1.6 | 0.00 | 0.00 | 0.00 | 59 | 1014.6 |
| 20260502223503 | 13 | 198 | 0.0 | 1.6 | 0.00 | 0.00 | 0.00 | 60 | 1025.3 |
| 20260502223054 | 13 | 0 | 0.0 | 0.0 | 0.00 | 0.00 | 0.00 | 59 | 1014.6 |
| 20260502223003 | 13 | 0 | 0.0 | 0.0 | 0.00 | 0.00 | 0.00 | 60 | 1025.3 |
| 20260502222717 | 13 | 0 | 0.0 | 0.0 | 0.00 | 0.00 | 0.00 | 59 | 1025.3 |
| 20260502222548 | 13 | 0 | 0.0 | 0.0 | 0.00 | 0.00 | 0.00 | 59 | 1014.6 |
| 20260502222047 | 13 | 0 | 0.0 | 0.0 | 0.00 | 0.00 | 0.00 | 59 | 1014.5 |
| 20260502222003 | 13 | 0 | 0.0 | 0.0 | 0.00 | 0.00 | 0.00 | 59 | 1025.2 |
| 20260502221602 | 13 | 0 | 0.0 | 0.0 | 0.00 | 0.00 | 0.00 | 58 | 1014.7 |
| 20260502221503 | 13 | 0 | 0.0 | 0.0 | 0.00 | 0.00 | 0.00 | 58 | 1025.2 |
| 20260502221050 | 13 | 0 | 0.0 | 0.0 | 0.00 | 0.00 | 0.00 | 57 | 1014.7 |
| 20260502221003 | 13 | 0 | 0.0 | 0.0 | 0.00 | 0.00 | 0.00 | 58 | 1025.4 |
| 20260502220717 | 14 | 0 | 0.0 | 0.0 | 0.00 | 0.00 | 0.00 | 58 | 1025.4 |
| 20260502220548 | 13 | 0 | 0.0 | 0.0 | 0.00 | 0.00 | 0.00 | 58 | 1014.7 |
| 20260502220058 | 13 | 0 | 0.0 | 0.0 | 0.00 | 0.00 | 0.00 | 57 | 1014.7 |
| 20260502220003 | 14 | 0 | 0.0 | 0.0 | 0.00 | 0.00 | 0.00 | 57 | 1025.4 |
| 20260502215546 | 13 | 0 | 0.0 | 0.0 | 0.00 | 0.00 | 0.00 | 56 | 1014.7 |
| 20260502215503 | 14 | 0 | 0.0 | 0.0 | 0.00 | 0.00 | 0.00 | 57 | 1025.4 |
| 20260502215049 | 14 | 0 | 0.0 | 0.0 | 0.00 | 0.00 | 0.00 | 56 | 1014.7 |
| 20260502215003 | 14 | 0 | 0.0 | 0.0 | 0.00 | 0.00 | 0.00 | 57 | 1025.4 |
| 20260502214605 | 14 | 0 | 0.0 | 0.0 | 0.00 | 0.00 | 0.00 | 56 | 1014.8 |
| 20260502214503 | 14 | 0 | 0.0 | 0.0 | 0.00 | 0.00 | 0.00 | 56 | 1025.4 |
| 20260502214045 | 14 | 0 | 0.0 | 0.0 | 0.00 | 0.00 | 0.00 | 55 | 1014.7 |
| 20260502214003 | 14 | 0 | 0.0 | 0.0 | 0.00 | 0.00 | 0.00 | 55 | 1025.4 |
| 20260502213546 | 14 | 0 | 0.0 | 0.0 | 0.00 | 0.00 | 0.00 | 56 | 1014.7 |
| 20260502213503 | 14 | 0 | 0.0 | 0.0 | 0.00 | 0.00 | 0.00 | 55 | 1025.4 |
| 20260502213055 | 14 | 0 | 0.0 | 0.0 | 0.00 | 0.00 | 0.00 | 55 | 1014.7 |
| 20260502213003 | 14 | 0 | 0.0 | 0.0 | 0.00 | 0.00 | 0.00 | 55 | 1025.4 |
| 20260502212547 | 14 | 0 | 0.0 | 0.0 | 0.00 | 0.00 | 0.00 | 56 | 1014.8 |
| 20260502212503 | 15 | 0 | 0.0 | 0.0 | 0.00 | 0.00 | 0.00 | 55 | 1025.3 |
| 20260502212047 | 14 | 0 | 0.0 | 0.0 | 0.00 | 0.00 | 0.00 | 54 | 1014.7 |
| 20260502212003 | 15 | 0 | 0.0 | 0.0 | 0.00 | 0.00 | 0.00 | 55 | 1025.3 |
| 20260502211559 | 14 | 0 | 0.0 | 0.0 | 0.00 | 0.00 | 0.00 | 54 | 1014.7 |
| 20260502211503 | 15 | 0 | 0.0 | 0.0 | 0.00 | 0.00 | 0.00 | 54 | 1025.3 |
| 20260502211217 | 15 | 0 | 0.0 | 0.0 | 0.00 | 0.00 | 0.00 | 54 | 1025.3 |
| 20260502211051 | 15 | 0 | 0.0 | 0.0 | 0.00 | 0.00 | 0.00 | 54 | 1014.7 |
| 20260502210545 | 15 | 0 | 0.0 | 0.0 | 0.00 | 0.00 | 0.00 | 53 | 1014.8 |
| 20260502210503 | 15 | 0 | 0.0 | 0.0 | 0.00 | 0.00 | 0.00 | 54 | 1025.4 |
| 20260502210051 | 15 | 0 | 0.0 | 0.0 | 0.00 | 0.00 | 0.00 | 53 | 1014.8 |
| 20260502210003 | 15 | 0 | 0.0 | 0.0 | 0.00 | 0.00 | 0.00 | 53 | 1025.4 |
| 20260502205716 | 15 | 0 | 0.0 | 0.0 | 0.00 | 0.00 | 0.00 | 54 | 1025.4 |
| 20260502205542 | 15 | 0 | 0.0 | 0.0 | 0.00 | 0.00 | 0.00 | 53 | 1014.9 |
| 20260502205042 | 15 | 0 | 0.0 | 0.0 | 0.00 | 0.00 | 0.00 | 52 | 1014.9 |
| 20260502205003 | 15 | 0 | 0.0 | 1.6 | 0.00 | 0.00 | 0.00 | 52 | 1025.4 |
| 20260502204552 | 15 | 0 | 0.0 | 0.0 | 0.00 | 0.00 | 0.00 | 52 | 1014.9 |
| 20260502204503 | 15 | 0 | 0.0 | 1.6 | 0.00 | 0.00 | 0.00 | 52 | 1025.5 |
| 20260502204044 | 15 | 0 | 0.0 | 1.6 | 0.00 | 0.00 | 0.00 | 51 | 1014.9 |
| 20260502204003 | 15 | 198 | 0.0 | 1.6 | 0.00 | 0.00 | 0.00 | 52 | 1025.5 |
| 20260502203542 | 15 | 0 | 0.0 | 1.6 | 0.00 | 0.00 | 0.00 | 51 | 1014.7 |
| 20260502203503 | 16 | 198 | 0.0 | 1.6 | 0.00 | 0.00 | 0.00 | 52 | 1025.4 |
| 20260502203059 | 16 | 0 | 0.0 | 1.6 | 0.00 | 0.00 | 0.00 | 51 | 1014.8 |
| 20260502203003 | 16 | 198 | 0.0 | 1.6 | 0.00 | 0.00 | 0.00 | 51 | 1025.4 |
| 20260502202718 | 16 | 0 | 0.0 | 0.0 | 0.00 | 0.00 | 0.00 | 51 | 1025.4 |
| 20260502202541 | 16 | 0 | 0.0 | 0.0 | 0.00 | 0.00 | 0.00 | 51 | 1014.9 |
| 20260502202041 | 16 | 0 | 0.0 | 0.0 | 0.00 | 0.00 | 0.00 | 49 | 1014.9 |
| 20260502202003 | 16 | 0 | 0.0 | 0.0 | 0.00 | 0.00 | 0.00 | 50 | 1025.5 |
| 20260502201552 | 16 | 0 | 0.0 | 0.0 | 0.00 | 0.00 | 0.00 | 49 | 1014.9 |
| 20260502201503 | 17 | 0 | 0.0 | 4.8 | 0.00 | 0.00 | 0.00 | 49 | 1025.5 |
| 20260502201217 | 17 | 0 | 0.0 | 4.8 | 0.00 | 0.00 | 0.00 | 48 | 1025.5 |
| 20260502201044 | 17 | 0 | 0.0 | 4.8 | 0.00 | 0.00 | 0.00 | 48 | 1014.9 |
| 20260502200545 | 17 | 0 | 0.0 | 4.8 | 0.00 | 0.00 | 0.00 | 46 | 1014.8 |
| 20260502200503 | 17 | 198 | 0.0 | 4.8 | 0.00 | 0.00 | 0.00 | 46 | 1025.4 |
| 20260502200053 | 17 | 0 | 1.6 | 4.8 | 0.00 | 0.00 | 0.00 | 44 | 1014.8 |
| 20260502200003 | 17 | 198 | 1.6 | 4.8 | 0.00 | 0.00 | 0.00 | 45 | 1025.4 |
| 20260502195544 | 17 | 0 | 0.0 | 3.2 | 0.00 | 0.00 | 0.00 | 44 | 1014.7 |
| 20260502195503 | 17 | 198 | 0.0 | 4.8 | 0.00 | 0.00 | 0.00 | 44 | 1025.4 |
| 20260502195041 | 17 | 0 | 0.0 | 3.2 | 0.00 | 0.00 | 0.00 | 44 | 1014.7 |
| 20260502195003 | 18 | 198 | 0.0 | 4.8 | 0.00 | 0.00 | 0.00 | 44 | 1025.3 |
| 20260502194551 | 18 | 0 | 0.0 | 4.8 | 0.00 | 0.00 | 0.00 | 43 | 1014.7 |
| 20260502194503 | 18 | 198 | 1.6 | 4.8 | 0.00 | 0.00 | 0.00 | 44 | 1025.3 |
| 20260502194042 | 18 | 0 | 1.6 | 4.8 | 0.00 | 0.00 | 0.00 | 43 | 1014.6 |
| 20260502194003 | 18 | 198 | 1.6 | 4.8 | 0.00 | 0.00 | 0.00 | 43 | 1025.2 |
| 20260502193541 | 18 | 198 | 0.0 | 3.2 | 0.00 | 0.00 | 0.00 | 42 | 1014.5 |
| 20260502193503 | 18 | 198 | 0.0 | 3.2 | 0.00 | 0.00 | 0.00 | 42 | 1025.1 |
| 20260502193054 | 18 | 0 | 0.0 | 3.2 | 0.00 | 0.00 | 0.00 | 42 | 1014.5 |
| 20260502193003 | 18 | 198 | 0.0 | 6.4 | 0.00 | 0.00 | 0.00 | 42 | 1025.1 |
| 20260502192718 | 18 | 198 | 0.0 | 6.4 | 0.00 | 0.00 | 0.00 | 41 | 1025.2 |
| 20260502192542 | 18 | 0 | 0.0 | 4.8 | 0.00 | 0.00 | 0.00 | 41 | 1014.5 |
| 20260502192041 | 18 | 0 | 0.0 | 6.4 | 0.00 | 0.00 | 0.00 | 40 | 1014.5 |
| 20260502192003 | 19 | 198 | 1.6 | 8.0 | 0.00 | 0.00 | 0.00 | 40 | 1025.1 |
| 20260502191554 | 19 | 0 | 0.0 | 6.4 | 0.00 | 0.00 | 0.00 | 40 | 1014.4 |
| 20260502191503 | 19 | 198 | 1.6 | 8.0 | 0.00 | 0.00 | 0.00 | 40 | 1025.0 |
| 20260502191042 | 19 | 198 | 1.6 | 8.0 | 0.00 | 0.00 | 0.00 | 39 | 1014.4 |
| 20260502191003 | 19 | 197 | 3.2 | 6.4 | 0.00 | 0.00 | 0.00 | 40 | 1024.9 |
| 20260502190542 | 19 | 198 | 1.6 | 8.0 | 0.00 | 0.00 | 0.00 | 39 | 1014.3 |
| 20260502190503 | 20 | 198 | 3.2 | 9.7 | 0.00 | 0.00 | 0.00 | 40 | 1024.9 |
| 20260502190054 | 19 | 197 | 1.6 | 9.7 | 0.00 | 0.00 | 0.00 | 39 | 1014.2 |
| 20260502190004 | 20 | 200 | 1.6 | 9.7 | 0.00 | 0.00 | 0.00 | 40 | 1025.0 |
| 20260502185541 | 20 | 0 | 0.0 | 9.7 | 0.00 | 0.00 | 0.00 | 39 | 1014.2 |
| 20260502185503 | 20 | 198 | 1.6 | 9.7 | 0.00 | 0.00 | 0.00 | 39 | 1024.9 |
| 20260502185041 | 20 | 200 | 1.6 | 9.7 | 0.00 | 0.00 | 0.00 | 38 | 1014.2 |
| 20260502185003 | 20 | 195 | 3.2 | 9.7 | 0.00 | 0.00 | 0.00 | 39 | 1024.9 |
| 20260502184553 | 20 | 194 | 1.6 | 9.7 | 0.00 | 0.00 | 0.00 | 38 | 1014.3 |
| 20260502184503 | 20 | 193 | 3.2 | 9.7 | 0.00 | 0.00 | 0.00 | 39 | 1024.9 |
| 20260502184044 | 20 | 194 | 1.6 | 9.7 | 0.00 | 0.00 | 0.00 | 38 | 1014.3 |
| 20260502184003 | 20 | 191 | 3.2 | 9.7 | 0.00 | 0.00 | 0.00 | 38 | 1024.8 |
| 20260502183544 | 20 | 192 | 3.2 | 9.7 | 0.00 | 0.00 | 0.00 | 37 | 1014.2 |
| 20260502183503 | 21 | 191 | 3.2 | 9.7 | 0.00 | 0.00 | 0.00 | 38 | 1024.8 |
| 20260502183052 | 21 | 190 | 1.6 | 8.0 | 0.00 | 0.00 | 0.00 | 37 | 1014.2 |
| 20260502183003 | 21 | 193 | 3.2 | 8.0 | 0.00 | 0.00 | 0.00 | 38 | 1024.8 |
| 20260502182541 | 21 | 194 | 1.6 | 8.0 | 0.00 | 0.00 | 0.00 | 37 | 1014.2 |
| 20260502182503 | 21 | 194 | 3.2 | 8.0 | 0.00 | 0.00 | 0.00 | 37 | 1024.8 |
| 20260502182044 | 21 | 194 | 1.6 | 6.4 | 0.00 | 0.00 | 0.00 | 37 | 1014.2 |
| 20260502182003 | 21 | 194 | 1.6 | 8.0 | 0.00 | 0.00 | 0.00 | 37 | 1024.8 |
| 20260502181717 | 21 | 194 | 3.2 | 9.7 | 0.00 | 0.00 | 0.00 | 37 | 1024.8 |
| 20260502181551 | 21 | 0 | 1.6 | 8.0 | 0.00 | 0.00 | 0.00 | 37 | 1014.2 |
| 20260502181042 | 21 | 194 | 1.6 | 9.7 | 0.00 | 0.00 | 0.00 | 36 | 1014.3 |
| 20260502181003 | 21 | 195 | 3.2 | 9.7 | 0.00 | 0.00 | 0.00 | 36 | 1024.9 |
| 20260502180717 | 22 | 195 | 3.2 | 9.7 | 0.00 | 0.00 | 0.00 | 37 | 1024.9 |
| 20260502180550 | 21 | 192 | 1.6 | 9.7 | 0.00 | 0.00 | 0.00 | 36 | 1014.3 |
| 20260502164047 | 23 | 187 | 11.3 | 20.9 | 0.00 | 0.00 | 0.00 | 29 | 1014.6 |
| 20260502164003 | 24 | 188 | 11.3 | 20.9 | 0.00 | 0.00 | 0.00 | 30 | 1025.3 |
| 20260502163547 | 23 | 158 | 9.7 | 22.5 | 0.00 | 0.00 | 0.00 | 29 | 1014.6 |
| 20260502163503 | 24 | 186 | 11.3 | 30.6 | 0.00 | 0.00 | 0.00 | 29 | 1025.3 |
| 20260502163217 | 24 | 187 | 11.3 | 30.6 | 0.00 | 0.00 | 0.00 | 28 | 1025.3 |
| 20260502163055 | 23 | 191 | 9.7 | 29.0 | 0.00 | 0.00 | 0.00 | 29 | 1014.7 |
| 20260502162549 | 23 | 184 | 11.3 | 30.6 | 0.00 | 0.00 | 0.00 | 27 | 1014.7 |
| 20260502162503 | 24 | 191 | 12.9 | 30.6 | 0.00 | 0.00 | 0.00 | 28 | 1025.3 |
| 20260502162046 | 24 | 192 | 11.3 | 30.6 | 0.00 | 0.00 | 0.00 | 26 | 1014.9 |
| 20260502162003 | 24 | 190 | 12.9 | 30.6 | 0.00 | 0.00 | 0.00 | 26 | 1025.4 |
| 20260502161558 | 24 | 188 | 9.7 | 27.4 | 0.00 | 0.00 | 0.00 | 25 | 1014.9 |
| 20260502161503 | 25 | 193 | 11.3 | 27.4 | 0.00 | 0.00 | 0.00 | 26 | 1025.5 |
| 20260502161045 | 24 | 201 | 12.9 | 24.1 | 0.00 | 0.00 | 0.00 | 26 | 1015.0 |
| 20260502161003 | 25 | 198 | 11.3 | 24.1 | 0.00 | 0.00 | 0.00 | 26 | 1025.5 |
| 20260502160545 | 25 | 196 | 11.3 | 22.5 | 0.00 | 0.00 | 0.00 | 28 | 1015.0 |
| 20260502160503 | 25 | 199 | 11.3 | 22.5 | 0.00 | 0.00 | 0.00 | 27 | 1025.5 |
| 20260502152217 | 25 | 190 | 11.3 | 24.1 | 0.00 | 0.00 | 0.00 | 26 | 1025.8 |
| 20260502152046 | 25 | 191 | 11.3 | 24.1 | 0.00 | 0.00 | 0.00 | 25 | 1015.2 |
| 20260502151559 | 25 | 177 | 9.7 | 22.5 | 0.00 | 0.00 | 0.00 | 23 | 1015.3 |
| 20260502151503 | 25 | 189 | 11.3 | 22.5 | 0.00 | 0.00 | 0.00 | 24 | 1025.9 |
| 20260502151217 | 25 | 189 | 12.9 | 29.0 | 0.00 | 0.00 | 0.00 | 25 | 1026.0 |
| 20260502151050 | 25 | 159 | 11.3 | 29.0 | 0.00 | 0.00 | 0.00 | 24 | 1015.4 |
| 20260502150548 | 25 | 167 | 14.5 | 29.0 | 0.00 | 0.00 | 0.00 | 24 | 1015.4 |
| 20260502150503 | 25 | 191 | 11.3 | 29.0 | 0.00 | 0.00 | 0.00 | 25 | 1026.1 |
| 20260502150109 | 25 | 167 | 8.0 | 19.3 | 0.00 | 0.00 | 0.00 | 26 | 1015.5 |
| 20260502130542 | 25 | 173 | 9.7 | 19.3 | 0.00 | 0.00 | 0.00 | 32 | 1017.2 |
| 20260502130503 | 25 | 189 | 9.7 | 22.5 | 0.00 | 0.00 | 0.00 | 33 | 1027.8 |
| 20260502123717 | 25 | 204 | 11.3 | 25.7 | 0.00 | 0.00 | 0.00 | 36 | 1028.1 |
| 20260502123544 | 24 | 208 | 11.3 | 25.7 | 0.00 | 0.00 | 0.00 | 34 | 1017.4 |
| 20260502123218 | 25 | 203 | 11.3 | 25.7 | 0.00 | 0.00 | 0.00 | 34 | 1028.1 |
| 20260502123051 | 25 | 169 | 11.3 | 25.7 | 0.00 | 0.00 | 0.00 | 34 | 1017.5 |
| 20260502122717 | 25 | 194 | 9.7 | 25.7 | 0.00 | 0.00 | 0.00 | 37 | 1028.1 |
| 20260502122544 | 24 | 208 | 8.0 | 25.7 | 0.00 | 0.00 | 0.00 | 37 | 1017.5 |
| 20260502122044 | 24 | 207 | 6.4 | 30.6 | 0.00 | 0.00 | 0.00 | 39 | 1017.6 |
| 20260502122003 | 24 | 187 | 11.3 | 30.6 | 0.00 | 0.00 | 0.00 | 40 | 1028.2 |
| 20260502121553 | 23 | 159 | 11.3 | 30.6 | 0.00 | 0.00 | 0.00 | 39 | 1017.7 |
| 20260502121503 | 24 | 187 | 11.3 | 30.6 | 0.00 | 0.00 | 0.00 | 39 | 1028.3 |
| 20260502121044 | 24 | 160 | 9.7 | 25.7 | 0.00 | 0.00 | 0.00 | 40 | 1017.7 |
| 20260502121003 | 24 | 191 | 11.3 | 25.7 | 0.00 | 0.00 | 0.00 | 39 | 1028.4 |
| 20260502120542 | 23 | 226 | 12.9 | 25.7 | 0.00 | 0.00 | 0.00 | 39 | 1017.8 |
| 20260502120503 | 24 | 194 | 11.3 | 25.7 | 0.00 | 0.00 | 0.00 | 40 | 1028.4 |
| 20260502120113 | 24 | 245 | 11.3 | 24.1 | 0.00 | 0.00 | 0.00 | 39 | 1017.8 |
| 20260502115542 | 23 | 208 | 8.0 | 25.7 | 0.00 | 0.00 | 0.00 | 41 | 1017.9 |
| 20260502115503 | 23 | 201 | 9.7 | 37.0 | 0.00 | 0.00 | 0.00 | 41 | 1028.4 |
| 20260502115042 | 23 | 220 | 9.7 | 25.7 | 0.00 | 0.00 | 0.00 | 41 | 1017.9 |
| 20260502115003 | 23 | 203 | 11.3 | 37.0 | 0.00 | 0.00 | 0.00 | 41 | 1028.5 |
| 20260502114600 | 23 | 192 | 11.3 | 37.0 | 0.00 | 0.00 | 0.00 | 41 | 1018.0 |
| 20260502114503 | 23 | 197 | 12.9 | 37.0 | 0.00 | 0.00 | 0.00 | 42 | 1028.7 |
| 20260502114218 | 23 | 194 | 12.9 | 37.0 | 0.00 | 0.00 | 0.00 | 42 | 1028.7 |
| 20260502114041 | 23 | 176 | 11.3 | 37.0 | 0.00 | 0.00 | 0.00 | 41 | 1018.1 |
| 20260502113717 | 23 | 194 | 12.9 | 37.0 | 0.00 | 0.00 | 0.00 | 41 | 1028.8 |
| 20260502113542 | 23 | 188 | 11.3 | 29.0 | 0.00 | 0.00 | 0.00 | 40 | 1018.1 |
| 20260502113053 | 23 | 251 | 8.0 | 24.1 | 0.00 | 0.00 | 0.00 | 43 | 1018.1 |
| 20260502113003 | 23 | 189 | 11.3 | 24.1 | 0.00 | 0.00 | 0.00 | 44 | 1028.7 |
| 20260502112541 | 23 | 193 | 12.9 | 24.1 | 0.00 | 0.00 | 0.00 | 42 | 1018.2 |
| 20260502112503 | 23 | 191 | 11.3 | 24.1 | 0.00 | 0.00 | 0.00 | 44 | 1028.9 |
| 20260502112218 | 23 | 198 | 11.3 | 24.1 | 0.00 | 0.00 | 0.00 | 44 | 1028.9 |
| 20260502112041 | 23 | 194 | 8.0 | 24.1 | 0.00 | 0.00 | 0.00 | 44 | 1018.3 |
| 20260502111559 | 23 | 201 | 9.7 | 22.5 | 0.00 | 0.00 | 0.00 | 43 | 1018.3 |
| 20260502111503 | 23 | 203 | 11.3 | 22.5 | 0.00 | 0.00 | 0.00 | 44 | 1028.9 |
| 20260502111042 | 23 | 179 | 9.7 | 22.5 | 0.00 | 0.00 | 0.00 | 43 | 1018.3 |
| 20260502111003 | 23 | 200 | 9.7 | 22.5 | 0.00 | 0.00 | 0.00 | 44 | 1028.9 |
| 20260502110543 | 23 | 185 | 8.0 | 22.5 | 0.00 | 0.00 | 0.00 | 43 | 1018.4 |
| 20260502110503 | 23 | 195 | 11.3 | 24.1 | 0.00 | 0.00 | 0.00 | 44 | 1028.9 |
| 20260502110053 | 23 | 176 | 9.7 | 24.1 | 0.00 | 0.00 | 0.00 | 46 | 1018.4 |
| 20260502110003 | 23 | 193 | 11.3 | 24.1 | 0.00 | 0.00 | 0.00 | 46 | 1029.1 |
| 20260502105542 | 23 | 226 | 11.3 | 24.1 | 0.00 | 0.00 | 0.00 | 43 | 1018.5 |
| 20260502105503 | 23 | 196 | 11.3 | 24.1 | 0.00 | 0.00 | 0.00 | 44 | 1029.1 |
| 20260502105217 | 23 | 194 | 11.3 | 24.1 | 0.00 | 0.00 | 0.00 | 43 | 1029.0 |
| 20260502105043 | 23 | 162 | 11.3 | 24.1 | 0.00 | 0.00 | 0.00 | 42 | 1018.5 |
| 20260502104554 | 23 | 189 | 9.7 | 20.9 | 0.00 | 0.00 | 0.00 | 43 | 1018.4 |
| 20260502104503 | 23 | 191 | 9.7 | 20.9 | 0.00 | 0.00 | 0.00 | 46 | 1029.1 |
| 20260502104043 | 23 | 186 | 9.7 | 20.9 | 0.00 | 0.00 | 0.00 | 45 | 1018.5 |
| 20260502104003 | 23 | 196 | 9.7 | 25.7 | 0.00 | 0.00 | 0.00 | 46 | 1029.1 |
| 20260502103542 | 22 | 237 | 9.7 | 19.3 | 0.00 | 0.00 | 0.00 | 45 | 1018.5 |
| 20260502103503 | 23 | 201 | 9.7 | 25.7 | 0.00 | 0.00 | 0.00 | 45 | 1029.1 |
| 20260502103053 | 22 | 217 | 6.4 | 25.7 | 0.00 | 0.00 | 0.00 | 46 | 1018.6 |
| 20260502103003 | 22 | 199 | 11.3 | 25.7 | 0.00 | 0.00 | 0.00 | 47 | 1029.3 |
| 20260502102542 | 22 | 188 | 12.9 | 25.7 | 0.00 | 0.00 | 0.00 | 45 | 1018.8 |
| 20260502102503 | 22 | 192 | 12.9 | 25.7 | 0.00 | 0.00 | 0.00 | 46 | 1029.3 |
| 20260502102042 | 22 | 193 | 11.3 | 25.7 | 0.00 | 0.00 | 0.00 | 46 | 1018.8 |
| 20260502102003 | 22 | 192 | 11.3 | 24.1 | 0.00 | 0.00 | 0.00 | 46 | 1029.4 |
| 20260502101550 | 22 | 194 | 9.7 | 22.5 | 0.00 | 0.00 | 0.00 | 47 | 1018.8 |
| 20260502101043 | 22 | 175 | 9.7 | 27.4 | 0.00 | 0.00 | 0.00 | 47 | 1018.9 |
| 20260502101003 | 22 | 191 | 9.7 | 27.4 | 0.00 | 0.00 | 0.00 | 48 | 1029.5 |
| 20260502100716 | 22 | 195 | 9.7 | 27.4 | 0.00 | 0.00 | 0.00 | 48 | 1029.7 |
| 20260502100541 | 22 | 232 | 8.0 | 27.4 | 0.00 | 0.00 | 0.00 | 48 | 1018.9 |
| 20260502100115 | 22 | 0 | 9.7 | 27.4 | 0.00 | 0.00 | 0.00 | 47 | 1019.1 |
| 20260502091503 | 21 | 191 | 8.0 | 22.5 | 0.00 | 0.00 | 0.00 | 50 | 1030.0 |
| 20260502091217 | 21 | 190 | 8.0 | 19.3 | 0.00 | 0.00 | 0.00 | 54 | 1030.1 |
| 20260502091042 | 20 | 173 | 6.4 | 19.3 | 0.00 | 0.00 | 0.00 | 53 | 1019.3 |
| 20260502090542 | 20 | 201 | 9.7 | 19.3 | 0.00 | 0.00 | 0.00 | 51 | 1019.4 |
| 20260502090503 | 20 | 193 | 8.0 | 19.3 | 0.00 | 0.00 | 0.00 | 52 | 1030.0 |
| 20260502090217 | 20 | 192 | 8.0 | 22.5 | 0.00 | 0.00 | 0.00 | 53 | 1030.0 |
| 20260502071045 | 15 | 101 | 1.6 | 6.4 | 0.00 | 0.00 | 0.00 | 69 | 1020.0 |
| 20260502071003 | 15 | 75 | 1.6 | 6.4 | 0.00 | 0.00 | 0.00 | 69 | 1030.7 |
| 20260502070546 | 15 | 0 | 0.0 | 4.8 | 0.00 | 0.00 | 0.00 | 69 | 1020.0 |
| 20260502070503 | 15 | 61 | 0.0 | 4.8 | 0.00 | 0.00 | 0.00 | 70 | 1030.7 |
| 20260502070057 | 14 | 0 | 0.0 | 0.0 | 0.00 | 0.00 | 0.00 | 72 | 1020.1 |
| 20260502070003 | 14 | 0 | 0.0 | 0.0 | 0.00 | 0.00 | 0.00 | 72 | 1030.7 |
| 20260502065547 | 13 | 0 | 0.0 | 0.0 | 0.00 | 0.00 | 0.00 | 74 | 1020.1 |
| 20260502065503 | 14 | 0 | 0.0 | 0.0 | 0.00 | 0.00 | 0.00 | 75 | 1030.8 |
| 20260502065218 | 13 | 0 | 0.0 | 0.0 | 0.00 | 0.00 | 0.00 | 76 | 1030.8 |
| 20260502065045 | 13 | 0 | 0.0 | 0.0 | 0.00 | 0.00 | 0.00 | 76 | 1020.1 |
| 20260502064607 | 12 | 0 | 0.0 | 0.0 | 0.00 | 0.00 | 0.00 | 77 | 1020.2 |
| 20260502064503 | 13 | 0 | 0.0 | 0.0 | 0.00 | 0.00 | 0.00 | 78 | 1030.9 |
| 20260502064048 | 12 | 0 | 0.0 | 0.0 | 0.00 | 0.00 | 0.00 | 79 | 1020.2 |
| 20260502064003 | 12 | 0 | 0.0 | 0.0 | 0.00 | 0.00 | 0.00 | 80 | 1030.9 |
| 20260502063548 | 12 | 0 | 0.0 | 0.0 | 0.00 | 0.00 | 0.00 | 80 | 1020.2 |
| 20260502063503 | 12 | 0 | 0.0 | 0.0 | 0.00 | 0.00 | 0.00 | 80 | 1031.0 |
| 20260502063052 | 11 | 0 | 0.0 | 0.0 | 0.00 | 0.00 | 0.00 | 80 | 1020.2 |
| 20260502063003 | 11 | 0 | 0.0 | 0.0 | 0.00 | 0.00 | 0.00 | 80 | 1030.9 |
| 20260502062548 | 11 | 0 | 0.0 | 0.0 | 0.00 | 0.00 | 0.00 | 80 | 1020.2 |
| 20260502062503 | 11 | 0 | 0.0 | 0.0 | 0.00 | 0.00 | 0.00 | 80 | 1030.9 |
| 20260502062048 | 11 | 0 | 0.0 | 0.0 | 0.00 | 0.00 | 0.00 | 79 | 1020.2 |
| 20260502062003 | 11 | 0 | 0.0 | 0.0 | 0.00 | 0.00 | 0.00 | 80 | 1030.9 |
| 20260502061552 | 11 | 0 | 0.0 | 0.0 | 0.00 | 0.00 | 0.00 | 79 | 1020.1 |
| 20260502061046 | 11 | 0 | 0.0 | 0.0 | 0.00 | 0.00 | 0.00 | 79 | 1020.2 |
| 20260502061003 | 11 | 0 | 0.0 | 0.0 | 0.00 | 0.00 | 0.00 | 80 | 1030.9 |
| 20260502060547 | 10 | 0 | 0.0 | 0.0 | 0.00 | 0.00 | 0.00 | 80 | 1020.3 |
| 20260502060503 | 11 | 0 | 0.0 | 0.0 | 0.00 | 0.00 | 0.00 | 81 | 1030.9 |
| 20260502060058 | 10 | 0 | 0.0 | 0.0 | 0.00 | 0.00 | 0.00 | 82 | 1020.3 |
| 20260502060003 | 10 | 0 | 0.0 | 0.0 | 0.00 | 0.00 | 0.00 | 83 | 1031.0 |
| 20260502055550 | 10 | 0 | 0.0 | 0.0 | 0.00 | 0.00 | 0.00 | 84 | 1020.3 |
| 20260502055503 | 10 | 0 | 0.0 | 0.0 | 0.00 | 0.00 | 0.00 | 85 | 1031.0 |
| 20260502055046 | 9 | 0 | 0.0 | 0.0 | 0.00 | 0.00 | 0.00 | 85 | 1020.2 |
| 20260502055003 | 9 | 0 | 0.0 | 0.0 | 0.00 | 0.00 | 0.00 | 86 | 1030.9 |
| 20260502054552 | 8 | 0 | 0.0 | 0.0 | 0.00 | 0.00 | 0.00 | 86 | 1020.3 |
| 20260502054503 | 8 | 0 | 0.0 | 0.0 | 0.00 | 0.00 | 0.00 | 86 | 1030.9 |
| 20260502054048 | 8 | 0 | 0.0 | 0.0 | 0.00 | 0.00 | 0.00 | 85 | 1020.2 |
| 20260502054003 | 8 | 0 | 0.0 | 0.0 | 0.00 | 0.00 | 0.00 | 85 | 1030.9 |
| 20260502053541 | 8 | 0 | 0.0 | 0.0 | 0.00 | 0.00 | 0.00 | 85 | 1020.3 |
| 20260502053503 | 8 | 0 | 0.0 | 0.0 | 0.00 | 0.00 | 0.00 | 86 | 1030.9 |
| 20260502053057 | 8 | 0 | 0.0 | 0.0 | 0.00 | 0.00 | 0.00 | 85 | 1020.3 |
| 20260502053003 | 8 | 0 | 0.0 | 0.0 | 0.00 | 0.00 | 0.00 | 86 | 1031.0 |
| 20260502052543 | 8 | 0 | 0.0 | 0.0 | 0.00 | 0.00 | 0.00 | 85 | 1020.3 |
| 20260502052503 | 8 | 0 | 0.0 | 0.0 | 0.00 | 0.00 | 0.00 | 86 | 1030.9 |
| 20260502052044 | 8 | 0 | 0.0 | 0.0 | 0.00 | 0.00 | 0.00 | 85 | 1020.3 |
| 20260502052003 | 8 | 0 | 0.0 | 0.0 | 0.00 | 0.00 | 0.00 | 85 | 1030.9 |
| 20260502051716 | 8 | 0 | 0.0 | 0.0 | 0.00 | 0.00 | 0.00 | 85 | 1030.9 |
| 20260502051643 | 8 | 0 | 0.0 | 0.0 | 0.00 | 0.00 | 0.00 | 85 | 1020.3 |
| 20260502051044 | 8 | 0 | 0.0 | 0.0 | 0.00 | 0.00 | 0.00 | 85 | 1020.2 |
| 20260502051003 | 8 | 0 | 0.0 | 0.0 | 0.00 | 0.00 | 0.00 | 85 | 1030.9 |
| 20260502050542 | 8 | 0 | 0.0 | 0.0 | 0.00 | 0.00 | 0.00 | 85 | 1020.2 |
| 20260502050503 | 8 | 0 | 0.0 | 0.0 | 0.00 | 0.00 | 0.00 | 86 | 1030.8 |
| 20260502050059 | 8 | 0 | 0.0 | 0.0 | 0.00 | 0.00 | 0.00 | 85 | 1020.1 |
| 20260502050003 | 8 | 0 | 0.0 | 0.0 | 0.00 | 0.00 | 0.00 | 86 | 1030.8 |
| 20260502045542 | 8 | 0 | 0.0 | 0.0 | 0.00 | 0.00 | 0.00 | 86 | 1020.2 |
| 20260502045503 | 8 | 0 | 0.0 | 0.0 | 0.00 | 0.00 | 0.00 | 86 | 1030.7 |
| 20260502045042 | 7 | 0 | 0.0 | 0.0 | 0.00 | 0.00 | 0.00 | 86 | 1020.1 |
| 20260502045003 | 8 | 0 | 0.0 | 0.0 | 0.00 | 0.00 | 0.00 | 86 | 1030.8 |
| 20260502044605 | 7 | 0 | 0.0 | 0.0 | 0.00 | 0.00 | 0.00 | 86 | 1020.1 |
| 20260502044504 | 7 | 0 | 0.0 | 0.0 | 0.00 | 0.00 | 0.00 | 86 | 1030.8 |
| 20260502044217 | 7 | 0 | 0.0 | 0.0 | 0.00 | 0.00 | 0.00 | 86 | 1030.7 |
| 20260502044042 | 7 | 0 | 0.0 | 0.0 | 0.00 | 0.00 | 0.00 | 86 | 1020.1 |
| 20260502043542 | 7 | 0 | 0.0 | 0.0 | 0.00 | 0.00 | 0.00 | 86 | 1020.1 |
| 20260502043503 | 7 | 0 | 0.0 | 0.0 | 0.00 | 0.00 | 0.00 | 86 | 1030.7 |
| 20260502043217 | 7 | 0 | 0.0 | 0.0 | 0.00 | 0.00 | 0.00 | 86 | 1030.7 |
| 20260502043058 | 7 | 0 | 0.0 | 0.0 | 0.00 | 0.00 | 0.00 | 85 | 1020.0 |
| 20260502042542 | 7 | 0 | 0.0 | 0.0 | 0.00 | 0.00 | 0.00 | 85 | 1020.1 |
| 20260502042503 | 7 | 0 | 0.0 | 0.0 | 0.00 | 0.00 | 0.00 | 86 | 1030.7 |
| 20260502042042 | 7 | 0 | 0.0 | 0.0 | 0.00 | 0.00 | 0.00 | 85 | 1020.1 |
| 20260502042003 | 7 | 0 | 0.0 | 0.0 | 0.00 | 0.00 | 0.00 | 85 | 1030.7 |
| 20260502041556 | 7 | 0 | 0.0 | 0.0 | 0.00 | 0.00 | 0.00 | 85 | 1020.1 |
| 20260502041503 | 7 | 0 | 0.0 | 0.0 | 0.00 | 0.00 | 0.00 | 85 | 1030.8 |
| 20260502041042 | 7 | 0 | 0.0 | 0.0 | 0.00 | 0.00 | 0.00 | 84 | 1020.0 |
| 20260502041003 | 7 | 0 | 0.0 | 0.0 | 0.00 | 0.00 | 0.00 | 85 | 1030.7 |
| 20260502040718 | 7 | 0 | 0.0 | 0.0 | 0.00 | 0.00 | 0.00 | 85 | 1030.7 |
| 20260502040544 | 7 | 0 | 0.0 | 0.0 | 0.00 | 0.00 | 0.00 | 84 | 1020.0 |
| 20260502040047 | 7 | 0 | 0.0 | 0.0 | 0.00 | 0.00 | 0.00 | 84 | 1020.0 |
| 20260502040003 | 7 | 0 | 0.0 | 0.0 | 0.00 | 0.00 | 0.00 | 85 | 1030.7 |
| 20260502035544 | 7 | 0 | 0.0 | 0.0 | 0.00 | 0.00 | 0.00 | 84 | 1020.0 |
| 20260502035503 | 7 | 0 | 0.0 | 0.0 | 0.00 | 0.00 | 0.00 | 85 | 1030.6 |
| 20260502035045 | 7 | 0 | 0.0 | 0.0 | 0.00 | 0.00 | 0.00 | 84 | 1020.0 |
| 20260502035003 | 7 | 0 | 0.0 | 0.0 | 0.00 | 0.00 | 0.00 | 85 | 1030.6 |
| 20260502034552 | 7 | 0 | 0.0 | 0.0 | 0.00 | 0.00 | 0.00 | 84 | 1020.0 |
| 20260502034503 | 7 | 0 | 0.0 | 0.0 | 0.00 | 0.00 | 0.00 | 85 | 1030.7 |
| 20260502034045 | 7 | 0 | 0.0 | 0.0 | 0.00 | 0.00 | 0.00 | 84 | 1020.0 |
| 20260502034003 | 7 | 0 | 0.0 | 0.0 | 0.00 | 0.00 | 0.00 | 85 | 1030.6 |
| 20260502033542 | 7 | 0 | 0.0 | 0.0 | 0.00 | 0.00 | 0.00 | 84 | 1020.0 |
| 20260502033503 | 7 | 0 | 0.0 | 0.0 | 0.00 | 0.00 | 0.00 | 85 | 1030.6 |
| 20260502033057 | 7 | 0 | 0.0 | 0.0 | 0.00 | 0.00 | 0.00 | 84 | 1020.0 |
| 20260502033003 | 7 | 0 | 0.0 | 0.0 | 0.00 | 0.00 | 0.00 | 84 | 1030.6 |
| 20260502032544 | 7 | 0 | 0.0 | 0.0 | 0.00 | 0.00 | 0.00 | 84 | 1020.0 |
| 20260502032503 | 7 | 0 | 0.0 | 0.0 | 0.00 | 0.00 | 0.00 | 84 | 1030.7 |
| 20260502032042 | 7 | 0 | 0.0 | 0.0 | 0.00 | 0.00 | 0.00 | 84 | 1020.0 |
| 20260502032003 | 7 | 0 | 0.0 | 0.0 | 0.00 | 0.00 | 0.00 | 84 | 1030.6 |
| 20260502031610 | 7 | 0 | 0.0 | 0.0 | 0.00 | 0.00 | 0.00 | 84 | 1020.0 |
| 20260502031503 | 7 | 0 | 0.0 | 0.0 | 0.00 | 0.00 | 0.00 | 84 | 1030.6 |
| 20260502031041 | 7 | 0 | 0.0 | 0.0 | 0.00 | 0.00 | 0.00 | 84 | 1020.0 |
| 20260502031003 | 7 | 0 | 0.0 | 0.0 | 0.00 | 0.00 | 0.00 | 84 | 1030.7 |
| 20260502030541 | 7 | 0 | 0.0 | 0.0 | 0.00 | 0.00 | 0.00 | 84 | 1020.0 |
| 20260502030503 | 7 | 0 | 0.0 | 0.0 | 0.00 | 0.00 | 0.00 | 84 | 1030.6 |
| 20260502030054 | 7 | 0 | 0.0 | 0.0 | 0.00 | 0.00 | 0.00 | 83 | 1020.0 |
| 20260502030003 | 7 | 0 | 0.0 | 0.0 | 0.00 | 0.00 | 0.00 | 84 | 1030.7 |
| 20260502025541 | 7 | 0 | 0.0 | 0.0 | 0.00 | 0.00 | 0.00 | 82 | 1020.0 |
| 20260502025503 | 8 | 0 | 0.0 | 0.0 | 0.00 | 0.00 | 0.00 | 83 | 1030.7 |
| 20260502025042 | 7 | 0 | 0.0 | 0.0 | 0.00 | 0.00 | 0.00 | 82 | 1020.1 |
| 20260502025003 | 8 | 0 | 0.0 | 0.0 | 0.00 | 0.00 | 0.00 | 83 | 1030.7 |
| 20260502024557 | 7 | 0 | 0.0 | 0.0 | 0.00 | 0.00 | 0.00 | 82 | 1020.0 |
| 20260502024503 | 8 | 0 | 0.0 | 0.0 | 0.00 | 0.00 | 0.00 | 82 | 1030.7 |
| 20260502024042 | 8 | 0 | 0.0 | 0.0 | 0.00 | 0.00 | 0.00 | 81 | 1020.0 |
| 20260502024003 | 8 | 0 | 0.0 | 0.0 | 0.00 | 0.00 | 0.00 | 82 | 1030.7 |
| 20260502023541 | 8 | 0 | 0.0 | 0.0 | 0.00 | 0.00 | 0.00 | 81 | 1020.1 |
| 20260502023503 | 8 | 0 | 0.0 | 0.0 | 0.00 | 0.00 | 0.00 | 82 | 1030.8 |
| 20260502023051 | 8 | 0 | 0.0 | 0.0 | 0.00 | 0.00 | 0.00 | 81 | 1020.1 |
| 20260502023003 | 8 | 0 | 0.0 | 0.0 | 0.00 | 0.00 | 0.00 | 82 | 1030.7 |
| 20260502022544 | 8 | 0 | 0.0 | 0.0 | 0.00 | 0.00 | 0.00 | 81 | 1020.1 |
| 20260502022503 | 8 | 0 | 0.0 | 0.0 | 0.00 | 0.00 | 0.00 | 82 | 1030.7 |